[ hide orbit diagram ]
For accurate long-term ephemerides, please instead use our Horizons system.This orbit viewer was implemented using two-body methods, and hence should not be used for determining accurate long-term trajectories (over several years or decades) or planetary encounter circumstances.
[ revert to old Java-based viewer ]
Orbital Elements at Epoch 2458600.5 (2019-Apr-27.0) TDB
Reference: JPL 29 (heliocentric ecliptic J2000)
Element | Value | Uncertainty (1-sigma) | Units |
e | .1483819993297816 | 4.1107e-08 | |
a | 3.222093769679911 | 2.0345e-08 | au |
q | 2.743993054106773 | 1.3057e-07 | au |
i | 1.887282707439252 | 4.6861e-06 | deg |
node | 52.16653913752024 | 0.00013348 | deg |
peri | 179.5082436975578 | 0.00013433 | deg |
M | 222.3490385905117 | 1.6866e-05 | deg |
tp | 2459408.260175945134 (2021-Jul-12.76017595) | 0.00010135 | TDB |
period | 2112.543641995978 5.78 | 2.0008e-05 5.478e-08 | d yr |
n | .170410680680596 | 1.614e-09 | deg/d |
Q | 3.70019448525305 | 2.3364e-08 | au |
|
| | Orbit Determination Parameters
Additional Information
|
[ show covariance matrix ]
Physical Parameter Table
Parameter |
Symbol |
Value |
Units |
Sigma |
Reference |
Notes |
absolute magnitude |
H |
13.0 |
|
n/a |
MPO337312 |
|
diameter |
diameter |
11.802 |
km |
0.107 |
urn:nasa:pds:neowise_diameters_albedos::2.0[mainbelt] (http://adsabs.harvard.edu/abs/2011ApJ...741...68M) |
|
geometric albedo |
albedo |
0.116 |
|
0.007 |
urn:nasa:pds:neowise_diameters_albedos::2.0[mainbelt] (http://adsabs.harvard.edu/abs/2011ApJ...741...68M) |
|
|
6832 Kawabata | Discovered 1992 Mar. 23 by K. Endate and K. Watanabe at Kitami. |
Named in memory of Yasunari Kawabata (1899-1972), Japanese novelist and author of "Izu no Odoriko". He was awarded the 1968 Nobel Prize in literature. |
NOTE: some special characters may not display properly (any characters within {} are an attempt to place the proper accent above a character) |
Reference: 19980808/MPCPages.arc | Last Updated: 2009-11-17 |
|
[ show close-approach data ]
Alternate Designations
1992 FP = 1978 WG9 = 1990 XR1 |
|
|